Home   Weather   Miami   Past weeks

Flag for USA Past Weather in Miami, Florida, USA — Yesterday and Last 2 Weeks

Now
93 °F

Scattered clouds.


Feels Like: 102 °F
Forecast: 79 / 90 °F
Wind: 13 mph from Southeast

Location: Miami International Airport

Current Time: Aug 16, 2017 at 6:18:16 pm

Latest Report: Aug 16, 2017 at 4:53 pm


Visibility: 10 mi

Pressure: 30.04 "Hg

Humidity: 52%

Dew Point: 73 °F

Location of MiamiLocation

Past Weather in Miami — Graph

°F

Miami Temperature Yesterday

Maximum temperature yesterday: 93 °F (at 1:28 pm)
Minimum temperature yesterday: 81 °F (at 4:53 am)
Average temperature yesterday: 87 °F

High & Low Weather Summary for the Past Weeks

 TemperatureHumidityPressure
High94 °F (Aug 14, 12:53 pm)94% (Aug 1, 4:29 pm)30.16 "Hg (Aug 1, 4:29 pm)
Low75 °F (Aug 1, 4:53 pm)49% (Aug 14, 4:31 pm)29.96 "Hg (Aug 14, 5:53 pm)
Average86 °F69%30.05 "Hg
* Reported Aug 1 4:29 pm — Aug 16 4:53 pm, Miami. Weather by CustomWeather, © 2017

Note: Actual official high and low records may vary slightly from our data, if they occured in-between our weather recording intervals... More about our weather records

Advertising

Miami Weather History for the Previous 24 Hours

Scroll right to see more
 ConditionsComfort  
Time TempWeatherWind HumidityBarometerVisibility
4:53 pm
Wed, Aug 16
93 °FScattered clouds.13 mph52%30.04 "Hg10 mi
3:53 pm94 °FBroken clouds.8 mph51%30.04 "Hg10 mi
2:53 pm92 °FBroken clouds.No wind58%30.06 "Hg10 mi
1:53 pm91 °FBroken clouds.3 mph60%30.08 "Hg10 mi
12:53 pm86 °FThunderstorms. Partly sunny.6 mph65%30.10 "Hg10 mi
12:02 pm92 °FThunderstorms. Broken clouds.13 mph60%30.10 "Hg10 mi
11:53 am92 °FThundershowers. Broken clouds.9 mph64%30.10 "Hg10 mi
10:53 am90 °FBroken clouds.No wind63%30.09 "Hg10 mi
9:53 am89 °FScattered clouds.5 mph65%30.09 "Hg10 mi
8:53 am87 °FPassing clouds.No wind69%30.09 "Hg10 mi
7:53 am84 °FScattered clouds.No wind77%30.07 "Hg10 mi
6:53 am83 °FPartly cloudy.No wind77%30.06 "Hg10 mi
5:53 am83 °FPassing clouds.No wind79%30.04 "Hg10 mi
4:53 am82 °FPassing clouds.No wind82%30.03 "Hg10 mi
3:53 am83 °FPassing clouds.No wind79%30.02 "Hg10 mi
2:53 am82 °FPassing clouds.No wind82%30.03 "Hg10 mi
1:53 am85 °FPassing clouds.No wind75%30.05 "Hg10 mi
12:53 am86 °FPassing clouds.No wind72%30.06 "Hg10 mi
12:13 am86 °FPassing clouds.No wind70%30.07 "Hg10 mi
11:53 pm
Tue, Aug 15
86 °FPassing clouds.3 mph70%30.06 "Hg10 mi
10:53 pm86 °FPassing clouds.5 mph72%30.05 "Hg10 mi
9:53 pm87 °FPassing clouds.3 mph69%30.04 "Hg10 mi
8:53 pm87 °FPassing clouds.6 mph67%30.03 "Hg10 mi
7:53 pm87 °FScattered clouds.7 mph65%30.01 "Hg10 mi
6:53 pm89 °FScattered clouds.9 mph59%30.00 "Hg10 mi
Weather by CustomWeather, © 2017

See weather overviewHow to use our weather pages